This demonstration page uses our WeatherBlox Daily Observations layout. Learn more.

Left ArrowRight Arrow

Hourly Observations for December 7, 2022

Temp ( °F °C ) Dew Point ( °F °C ) Humidity (%) Winds ( mph kmh ) Pressure ( in mb ) Visibility ( mi km ) Precip ( " mm )
12:52 am 00:52 Cloudy 41 5 33 0.6 73 73 Calm 30.13 1020 10 16 0.00 0.00
1:52 am 01:52 Cloudy 40 4.4 33 0.6 76 76 Calm 30.14 1021 10 16 0.00 0.00
2:52 am 02:52 Cloudy 41 5 33 0.6 73 73 Calm 30.16 1022 10 16 0.00 0.00
3:52 am 03:52 Cloudy 41 5 33 0.6 73 73 Calm 30.17 1022 10 16 0.00 0.00
4:52 am 04:52 Cloudy 41 5 34 1.1 76 76 Calm 30.17 1022 10 16 0.00 0.00
5:52 am 05:52 Cloudy 41 5 34 1.1 76 76 Calm 30.19 1023 10 16 0.00 0.00
6:22 am 06:22 Cloudy 41 5 34 1.1 76 76 Calm 30.22 1023 10 16 0.00 0.00
6:52 am 06:52 Cloudy 41 5 34 1.1 76 76 Calm 30.20 1023 10 16 0.00 0.00
7:21 am 07:21 Cloudy with Haze 39 3.9 34 1.1 82 82 Calm 30.23 1024 6 10 0.00 0.00
7:52 am 07:52 Cloudy 39 3.9 34 1.1 82 82 Calm 30.24 1024 7 11 0.00 0.00
8:52 am 08:52 Cloudy with Mist and Fog 39 3.9 35 1.7 86 86 WNW 7 11 30.27 1025 5 8 0.00 0.00
9:52 am 09:52 Partly Cloudy with Mist and Fog 41 5 38 3.3 89 89 WSW 5 7 30.27 1025 5 8 0.00 0.00
10:52 am 10:52 Sunny 46 7.8 37 2.8 71 71 WNW 5 7 30.29 1026 7 11 0.00 0.00
11:52 am 11:52 Hazy 47 8.3 37 2.8 68 68 NW 5 7 30.27 1025 6 10 0.00 0.00
12:52 pm 12:52 Sunny 48 8.9 38 3.3 68 68 Calm 30.27 1025 7 11 0.00 0.00
1:52 pm 13:52 Sunny 50 10 38 3.3 63 63 Calm 30.26 1025 7 11 0.00 0.00
2:52 pm 14:52 Sunny 49 9.4 38 3.3 66 66 W 6 9 30.26 1025 7 11 0.00 0.00
3:52 pm 15:52 Sunny 48 8.9 37 2.8 66 66 W 3 6 30.27 1025 7 11 0.00 0.00
4:52 pm 16:52 Hazy 44 6.7 35 1.7 70 70 WNW 5 7 30.28 1026 5 8 0.00 0.00
5:52 pm 17:52 Hazy 41 5 34 1.1 76 76 NNW 6 9 30.28 1026 5 8 0.00 0.00
6:52 pm 18:52 Hazy 39 3.9 34 1.1 82 82 NW 3 6 30.29 1026 5 8 0.00 0.00
7:52 pm 19:52 Clear 41 5 35 1.7 79 79 NE 5 7 30.29 1026 7 11 0.00 0.00
8:52 pm 20:52 Clear 44 6.7 34 1.1 67 67 NE 7 11 30.30 1026 8 13 0.00 0.00
9:52 pm 21:52 Clear 43 6.1 35 1.7 73 73 NE 6 9 30.30 1026 8 13 0.00 0.00
10:52 pm 22:52 Mostly Clear 42 5.6 35 1.7 76 76 Calm 30.28 1026 7 11 0.00 0.00
11:34 pm 23:34 Mostly Cloudy 43 6.1 36 2.2 76 76 ENE 3 6 30.29 1026 7 11 0.00 0.00
11:52 pm 23:52 Cloudy 43 6.1 36 2.2 76 76 Calm 30.28 1025 7 11 0.00 0.00

Powered by AerisWeather